Torna al catalogo

SL-19 R/B

AttivoPO
NORAD 28061·ROCKET BODY·🇷🇺 Russia

Lanciato Oct 30, 2003 da Plesetsk Cosmodrome

Loading…

Prossimi Passaggi (prossime 24 ore)

TLE

AggiornatoSource: Space-Track

Epoca: Sep 14, 2026, 02:37 UTC

1 28061U 03050B   26257.10942977  .00000175  00000-0  14513-3 0  9996
2 28061  99.5366 297.6283 0145045 315.3518  43.6037 13.97760190166749

Traccia SL-19 R/B in tempo reale con AllMySat

Download on the App Store